Location: Berg
(48.4333°N, 13.9167°E)
Time: 05:33:33
(UTC+00:00)

NOSS 2-2 (C) - Pass Details

Date: 18 September 2020
Orbit: 468 x 1740 km, 63.3° (Epoch: 19 October)

Event Time Altitude Azimuth Distance (km) Brightness Sun altitude
Rises 18:15:29 0° 203° (SSW) 2,508 6.8 -11.5°
Reaches altitude 10° 18:17:36 10° 196° (SSW) 1,622 5.7 -11.9°
Maximum altitude 18:20:55 43° 124° (ESE) 694 3.4 -12.4°
Drops below altitude 10° 18:24:35 10° 51° (NE) 1,793 5.6 -13.0°
Sets 18:27:02 0° 45° (NE) 2,814 6.7 -13.4°
